KB7SAT Weather Reports


time (UTC)temp
F
wind
direction
speed
knots
gust
knots
rain 1hr
in
rain 24hr
in
rain mn
in
humidity
%
barometer
mb
20240418172713 77 169 0.0 2.6 0.00 0.00 0.00 19 1102.6
20240418172213 77 157 0.0 1.7 0.00 0.00 0.00 18 1102.7
20240418171712 78 149 0.9 2.6 0.00 0.00 0.00 18 1102.7
20240418171210 78 163 0.0 1.7 0.00 0.00 0.00 19 1102.8
20240418170710 77 153 0.0 1.7 0.00 0.00 0.00 18 1102.8
20240418170210 77 126 0.0 0.9 0.00 0.00 0.00 19 1102.8
20240418165708 76 162 0.0 0.9 0.00 0.00 0.00 19 1102.8
20240418165207 77 243 0.9 1.7 0.00 0.00 0.00 18 1102.8
20240418164706 76 237 0.0 0.9 0.00 0.00 0.00 19 1102.8
20240418164205 76 161 0.0 0.0 0.00 0.00 0.00 20 1102.7
20240418163705 75 199 0.0 0.0 0.00 0.00 0.00 20 1102.9
20240418163204 74 191 0.0 0.0 0.00 0.00 0.00 20 1102.8
20240418162702 73 176 0.0 1.7 0.00 0.00 0.00 21 1102.8
20240418162202 73 185 0.0 0.9 0.00 0.00 0.00 20 1102.8
20240418161700 73 190 1.7 2.6 0.00 0.00 0.00 20 1102.8
20240418161158 73 209 0.9 2.6 0.00 0.00 0.00 21 1102.9
20240418160656 72 176 0.0 0.9 0.00 0.00 0.00 21 1102.8
20240418160155 72 255 1.7 2.6 0.00 0.00 0.00 21 1102.6
20240418155654 72 179 0.0 2.6 0.00 0.00 0.00 21 1102.6
20240418155153 72 327 1.7 2.6 0.00 0.00 0.00 21 1102.4
20240418154652 72 221 0.9 2.6 0.00 0.00 0.00 22 1102.4
20240418154152 72 233 3.5 3.5 0.00 0.00 0.00 22 1102.8
20240418153650 72 169 0.0 2.6 0.00 0.00 0.00 21 1102.7
20240418153149 72 147 0.0 0.0 0.00 0.00 0.00 22 1102.5
20240418152648 71 144 0.0 1.7 0.00 0.00 0.00 22 1102.7
20240418152146 71 177 0.9 1.7 0.00 0.00 0.00 22 1102.4
20240418151645 70 246 2.6 5.2 0.00 0.00 0.00 22 1102.0
20240418151144 70 260 2.6 5.2 0.00 0.00 0.00 23 1102.3
20240418150642 70 252 2.6 3.5 0.00 0.00 0.00 23 1102.1
20240418150140 69 10 2.6 2.6 0.00 0.00 0.00 23 1102.2
20240418145639 69 332 1.7 2.6 0.00 0.00 0.00 25 1102.3
20240418145138 68 225 0.9 1.7 0.00 0.00 0.00 26 1102.3
20240418144635 67 96 0.0 0.9 0.00 0.00 0.00 27 1102.2
20240418144135 66 133 0.0 0.9 0.00 0.00 0.00 27 1102.1
20240418143633 66 125 0.0 1.7 0.00 0.00 0.00 27 1102.0
20240418143132 66 349 1.7 1.7 0.00 0.00 0.00 27 1101.8
20240418142632 66 191 0.9 2.6 0.00 0.00 0.00 27 1101.4
20240418142130 66 113 0.0 1.7 0.00 0.00 0.00 27 1102.0
20240418141630 66 201 0.0 0.9 0.00 0.00 0.00 27 1101.7
20240418141129 68 113 0.9 1.7 0.00 0.00 0.00 25 1101.8
20240418140628 69 83 1.7 1.7 0.00 0.00 0.00 25 1101.6
20240418140127 68 118 0.0 1.7 0.00 0.00 0.00 24 1101.6
20240418135625 68 151 0.0 0.0 0.00 0.00 0.00 26 1101.6
20240418135124 67 137 0.0 0.0 0.00 0.00 0.00 26 1101.4
20240418134624 68 137 0.0 0.0 0.00 0.00 0.00 24 1101.3
20240418134124 67 137 0.0 0.0 0.00 0.00 0.00 24 1101.3
20240418133624 66 173 0.0 0.0 0.00 0.00 0.00 25 1101.2
20240418133122 66 173 0.0 0.0 0.00 0.00 0.00 25 1101.3
20240418132620 66 174 0.0 0.0 0.00 0.00 0.00 25 1101.1
20240418132117 65 174 0.0 0.0 0.00 0.00 0.00 25 1101.1
20240418131615 65 236 0.0 0.0 0.00 0.00 0.00 25 1101.2
20240418131115 65 188 0.0 0.0 0.00 0.00 0.00 24 1101.1
20240418130613 66 171 0.0 0.0 0.00 0.00 0.00 24 1101.0
20240418130113 66 153 0.0 2.6 0.00 0.00 0.00 24 1100.9
20240418125611 66 230 0.0 0.9 0.00 0.00 0.00 23 1100.8
20240418125111 66 310 0.9 3.5 0.00 0.00 0.00 23 1100.7
20240418124610 66 336 2.6 3.5 0.00 0.00 0.00 23 1100.9
20240418124109 66 345 2.6 6.1 0.00 0.00 0.00 23 1100.6
20240418123607 66 3 1.7 3.5 0.00 0.00 0.00 24 1100.7
20240418123106 66 326 1.7 3.5 0.00 0.00 0.00 24 1100.7
20240418122605 65 222 1.7 3.5 0.00 0.00 0.00 24 1100.9
20240418122105 65 328 1.7 2.6 0.00 0.00 0.00 25 1100.8
20240418121604 65 314 1.7 2.6 0.00 0.00 0.00 25 1100.6
20240418121102 65 298 2.6 2.6 0.00 0.00 0.00 25 1100.7
20240418120601 65 109 0.0 1.7 0.00 0.00 0.00 25 1100.6
20240418120100 65 315 1.7 1.7 0.00 0.00 0.00 24 1100.3
20240418115559 65 324 0.0 1.7 0.00 0.00 0.00 24 1100.6
20240418115059 65 336 1.7 2.6 0.00 0.00 0.00 24 1100.6
20240418114557 65 297 1.7 2.6 0.00 0.00 0.00 24 1100.5
20240418114055 65 293 1.7 2.6 0.00 0.00 0.00 24 1100.3
20240418113553 65 193 0.0 0.0 0.00 0.00 0.00 24 1100.6
20240418113052 65 264 0.0 1.7 0.00 0.00 0.00 23 1100.6
20240418112552 66 157 0.0 0.0 0.00 0.00 0.00 23 1100.3
20240418112051 66 315 0.9 1.7 0.00 0.00 0.00 23 1100.1
20240418111549 66 347 0.9 2.6 0.00 0.00 0.00 23 1100.2
20240418111048 66 171 0.9 1.7 0.00 0.00 0.00 23 1100.3
20240418110547 66 279 1.7 2.6 0.00 0.00 0.00 23 1100.3
20240418110046 66 216 0.9 2.6 0.00 0.00 0.00 23 1100.1
20240418105544 66 240 1.7 2.6 0.00 0.00 0.00 24 1100.2
20240418105043 66 340 2.6 2.6 0.00 0.00 0.00 24 1100.2
20240418104541 66 269 2.6 2.6 0.00 0.00 0.00 24 1100.2
20240418104039 66 305 1.7 2.6 0.00 0.00 0.00 23 1100.2
20240418103537 66 240 1.7 1.7 0.00 0.00 0.00 24 1100.5
20240418103036 66 224 0.0 0.0 0.00 0.00 0.00 24 1100.2
20240418102535 67 287 0.9 0.9 0.00 0.00 0.00 23 1100.2
20240418102035 67 300 1.7 1.7 0.00 0.00 0.00 23 1100.1
20240418101534 67 317 0.9 1.7 0.00 0.00 0.00 23 1100.0
20240418101032 67 216 1.7 3.5 0.00 0.00 0.00 23 1100.1
20240418100531 68 264 1.7 2.6 0.00 0.00 0.00 23 1100.2
20240418100029 68 176 0.0 0.9 0.00 0.00 0.00 23 1100.2
20240418095528 68 308 1.7 3.5 0.00 0.00 0.00 23 1100.0
20240418095027 68 247 1.7 3.5 0.00 0.00 0.00 23 1100.1
20240418094527 68 261 1.7 5.2 0.00 0.00 0.00 23 1100.2
20240418094026 67 216 0.0 0.0 0.00 0.00 0.00 24 1100.0
20240418093525 69 160 0.9 0.9 0.00 0.00 0.00 23 1100.0
20240418093024 69 12 1.7 2.6 0.00 0.00 0.00 21 1099.9
20240418092522 69 25 3.5 6.1 0.00 0.00 0.00 21 1099.7
20240418092021 68 26 1.7 3.5 0.00 0.00 0.00 22 1100.0
20240418091520 67 256 1.7 3.5 0.00 0.00 0.00 23 1100.1
20240418091018 67 344 3.5 3.5 0.00 0.00 0.00 23 1100.1
20240418090517 67 191 1.7 2.6 0.00 0.00 0.00 23 1100.1
20240418090016 67 304 0.9 1.7 0.00 0.00 0.00 23 1100.1
20240418085515 68 91 0.0 0.0 0.00 0.00 0.00 22 1100.1
20240418085015 69 141 0.0 0.9 0.00 0.00 0.00 22 1100.2
20240418084514 69 105 0.0 1.7 0.00 0.00 0.00 21 1100.2
20240418084014 69 55 0.9 2.6 0.00 0.00 0.00 20 1100.2
20240418083513 69 162 0.0 0.0 0.00 0.00 0.00 21 1100.1
20240418083013 70 149 0.0 0.0 0.00 0.00 0.00 21 1100.2
20240418082512 70 144 0.0 1.7 0.00 0.00 0.00 20 1100.0
20240418082012 70 99 0.0 1.7 0.00 0.00 0.00 20 1099.8
20240418081510 70 135 0.9 2.6 0.00 0.00 0.00 20 1100.1
20240418081009 70 16 1.7 3.5 0.00 0.00 0.00 20 1100.0
20240418080508 69 357 2.6 3.5 0.00 0.00 0.00 21 1100.2
20240418080007 68 329 0.9 1.7 0.00 0.00 0.00 22 1100.2
20240418075506 68 230 0.9 0.9 0.00 0.00 0.00 22 1100.3
20240418075004 68 231 0.9 0.9 0.00 0.00 0.00 22 1100.5
20240418074503 70 247 1.7 2.6 0.00 0.00 0.00 21 1100.5
20240418074002 70 223 1.7 2.6 0.00 0.00 0.00 21 1100.2
20240418073502 70 34 3.5 5.2 0.00 0.00 0.00 20 1100.2
20240418073002 70 26 1.7 5.2 0.00 0.00 0.00 20 1100.1
20240418072502 69 24 1.7 2.6 0.00 0.00 0.00 21 1100.3
20240418072002 70 115 0.9 1.7 0.00 0.00 0.00 21 1100.3
20240418071501 70 169 0.0 0.0 0.00 0.00 0.00 20 1100.5
20240418070959 71 273 1.7 2.6 0.00 0.00 0.00 20 1100.7
20240418070458 71 247 2.6 3.5 0.00 0.00 0.00 19 1100.5
20240418065956 72 359 1.7 3.5 0.00 0.00 0.00 18 1100.5
20240418065454 72 16 1.7 3.5 0.00 0.00 0.00 18 1100.5
20240418064952 73 182 2.6 3.5 0.00 0.00 0.00 18 1100.2
20240418064450 72 207 1.7 2.6 0.00 0.00 0.00 19 1100.2
20240418063949 72 339 1.7 2.6 0.00 0.00 0.00 19 1100.0
20240418063448 73 16 0.9 2.6 0.00 0.00 0.00 19 1100.0
20240418062948 73 28 0.9 2.6 0.00 0.00 0.00 19 1100.0
20240418062447 73 325 1.7 1.7 0.00 0.00 0.00 19 1099.9
20240418061947 74 106 0.0 0.9 0.00 0.00 0.00 18 1099.7
20240418061447 74 124 0.0 1.7 0.00 0.00 0.00 18 1099.9
20240418060946 74 123 0.0 0.9 0.00 0.00 0.00 19 1100.1
20240418060446 75 94 0.9 2.6 0.00 0.00 0.00 17 1099.8
20240418055944 75 76 1.7 1.7 0.00 0.00 0.00 17 1099.9
20240418055443 75 103 0.0 0.9 0.00 0.00 0.00 17 1099.7
20240418054943 76 31 1.7 2.6 0.00 0.00 0.00 17 1099.8
20240418054443 76 12 1.7 2.6 0.00 0.00 0.00 17 1099.9
20240418053941 76 106 0.0 1.7 0.00 0.00 0.00 17 1100.1
20240418053439 76 90 0.0 0.9 0.00 0.00 0.00 17 1100.0
20240418052937 76 122 0.0 0.9 0.00 0.00 0.00 17 1100.1
20240418052437 76 88 0.9 0.9 0.00 0.00 0.00 17 1100.1
20240418051936 76 22 0.0 0.9 0.00 0.00 0.00 17 1100.0
20240418051436 76 341 1.7 1.7 0.00 0.00 0.00 17 1099.8
20240418050934 76 98 0.0 1.7 0.00 0.00 0.00 18 1099.9
20240418050433 76 117 0.0 0.0 0.00 0.00 0.00 18 1099.9
20240418045931 77 132 0.0 0.0 0.00 0.00 0.00 18 1099.9
20240418045429 77 128 0.0 0.0 0.00 0.00 0.00 18 1100.0
20240418044928 77 116 0.0 0.0 0.00 0.00 0.00 18 1099.8
20240418044427 77 116 0.0 0.0 0.00 0.00 0.00 17 1099.8
20240418043925 78 126 0.0 0.0 0.00 0.00 0.00 17 1099.9
20240418043424 78 125 0.0 0.0 0.00 0.00 0.00 17 1099.9
20240418042924 78 129 0.0 0.0 0.00 0.00 0.00 17 1099.8
20240418042424 78 92 1.7 1.7 0.00 0.00 0.00 17 1099.9
20240418041922 78 120 0.0 0.0 0.00 0.00 0.00 18 1099.7
20240418041420 78 134 0.0 0.0 0.00 0.00 0.00 18 1099.5
20240418040920 78 144 0.0 0.0 0.00 0.00 0.00 18 1099.6
20240418040419 78 171 0.0 0.0 0.00 0.00 0.00 18 1099.6
20240418035917 79 192 0.0 0.0 0.00 0.00 0.00 17 1099.6
20240418035417 79 250 0.9 1.7 0.00 0.00 0.00 17 1099.5
20240418034916 79 65 0.9 2.6 0.00 0.00 0.00 17 1099.6
20240418034415 80 163 1.7 1.7 0.00 0.00 0.00 15 1099.5
20240418033913 79 155 1.7 1.7 0.00 0.00 0.00 15 1099.3
20240418033411 79 153 0.0 0.0 0.00 0.00 0.00 16 1099.3
20240418032910 79 168 0.0 0.0 0.00 0.00 0.00 15 1099.4
20240418032410 79 171 0.0 0.0 0.00 0.00 0.00 15 1099.4
20240418031910 80 169 0.0 0.0 0.00 0.00 0.00 15 1099.1
20240418031408 80 157 0.9 1.7 0.00 0.00 0.00 15 1099.2
20240418030906 81 152 0.9 1.7 0.00 0.00 0.00 14 1099.1
20240418030405 81 163 0.0 0.0 0.00 0.00 0.00 14 1099.0
20240418025905 81 159 0.9 0.9 0.00 0.00 0.00 14 1099.0
20240418025404 81 181 0.0 1.7 0.00 0.00 0.00 13 1099.0
20240418024903 82 166 0.0 0.9 0.00 0.00 0.00 13 1099.0
20240418024403 82 178 0.0 1.7 0.00 0.00 0.00 13 1099.0
20240418023903 82 155 0.9 1.7 0.00 0.00 0.00 13 1098.7
20240418023402 83 164 1.7 3.5 0.00 0.00 0.00 12 1098.7
20240418022901 83 155 0.9 2.6 0.00 0.00 0.00 12 1098.6
20240418022400 84 168 1.7 5.2 0.00 0.00 0.00 13 1098.7
20240418021859 84 161 0.9 2.6 0.00 0.00 0.00 12 1098.6
20240418021358 84 165 0.0 1.7 0.00 0.00 0.00 12 1098.6
20240418020857 84 145 1.7 3.5 0.00 0.00 0.00 12 1098.9
20240418020356 84 167 0.0 0.9 0.00 0.00 0.00 12 1098.9
20240418015855 85 156 1.7 2.6 0.00 0.00 0.00 12 1099.0
20240418015352 85 142 3.5 5.2 0.00 0.00 0.00 11 1098.9
20240418014851 86 153 1.7 3.5 0.00 0.00 0.00 12 1099.1
20240418014351 86 140 0.9 3.5 0.00 0.00 0.00 12 1099.1
20240418013850 86 159 2.6 5.2 0.00 0.00 0.00 11 1099.1
20240418013349 86 181 3.5 5.2 0.00 0.00 0.00 11 1099.0
20240418012850 87 192 0.9 5.2 0.00 0.00 0.00 11 1098.9
20240418012350 87 159 2.6 5.2 0.00 0.00 0.00 11 1099.2
20240418011848 88 153 0.9 3.5 0.00 0.00 0.00 11 1099.1
20240418011348 88 140 4.3 6.1 0.00 0.00 0.00 11 1099.1
20240418010846 89 166 0.9 5.2 0.00 0.00 0.00 11 1099.2
20240418010345 89 152 3.5 5.2 0.00 0.00 0.00 11 1099.1
20240418005845 89 218 1.7 2.6 0.00 0.00 0.00 11 1099.2
20240418005342 89 162 3.5 7.0 0.00 0.00 0.00 11 1099.0
20240418004841 90 147 5.2 7.0 0.00 0.00 0.00 11 1098.9
20240418004341 89 158 0.0 1.7 0.00 0.00 0.00 11 1099.0
20240418003840 88 151 3.5 5.2 0.00 0.00 0.00 12 1099.2
20240418003339 89 154 1.7 3.5 0.00 0.00 0.00 11 1099.1
20240418002839 89 171 0.9 3.5 0.00 0.00 0.00 12 1099.3
20240418002337 90 206 1.7 7.0 0.00 0.00 0.00 12 1099.0
20240418001836 91 162 0.9 3.5 0.00 0.00 0.00 11 1099.4
20240418001336 91 179 0.9 1.7 0.00 0.00 0.00 11 1099.2
20240418000836 91 139 0.9 1.7 0.00 0.00 0.00 11 1099.4
20240418000332 89 161 0.9 5.2 0.00 0.00 0.00 11 1099.2
20240417235830 91 204 5.2 7.0 0.00 0.00 0.00 11 1099.3
20240417235328 92 206 3.5 5.2 0.00 0.00 0.00 11 1099.5
20240417234826 90 171 0.0 1.7 0.00 0.00 0.00 12 1099.3
20240417234326 92 258 3.5 3.5 0.00 0.00 0.00 11 1099.5
20240417233824 90 160 0.9 2.6 0.00 0.00 0.00 11 1099.6
20240417233324 90 169 2.6 2.6 0.00 0.00 0.00 11 1099.4
20240417232822 90 179 2.6 6.1 0.00 0.00 0.00 11 1099.5
20240417232322 90 177 5.2 8.7 0.00 0.00 0.00 11 1099.4
20240417231822 92 160 4.3 6.1 0.00 0.00 0.00 11 1099.3
20240417231320 92 128 0.0 0.9 0.00 0.00 0.00 11 1099.6
20240417230820 92 174 3.5 5.2 0.00 0.00 0.00 11 1099.7
20240417230319 91 203 0.9 1.7 0.00 0.00 0.00 10 1099.6
20240417225817 92 178 5.2 7.0 0.00 0.00 0.00 11 1099.7
20240417225317 91 157 0.0 2.6 0.00 0.00 0.00 10 1099.7
20240417224815 90 188 0.0 0.0 0.00 0.00 0.00 11 1099.8
20240417224313 89 150 0.0 0.9 0.00 0.00 0.00 11 1099.9
20240417223813 91 158 0.9 6.1 0.00 0.00 0.00 11 1100.0
20240417223311 90 146 0.0 2.6 0.00 0.00 0.00 11 1099.9
20240417222810 91 153 1.7 1.7 0.00 0.00 0.00 11 1100.1
20240417222307 91 179 0.0 0.0 0.00 0.00 0.00 11 1100.1
20240417221806 90 172 0.9 2.6 0.00 0.00 0.00 11 1100.5
20240417221305 90 171 0.0 0.9 0.00 0.00 0.00 12 1100.3
20240417220804 88 93 3.5 5.2 0.00 0.00 0.00 13 1100.3
20240417220302 89 170 0.0 0.9 0.00 0.00 0.00 12 1100.3
20240417215801 89 184 0.9 1.7 0.00 0.00 0.00 12 1100.7
20240417215259 88 41 3.5 5.2 0.00 0.00 0.00 13 1100.7
20240417214757 89 128 3.5 7.0 0.00 0.00 0.00 12 1100.8
20240417214256 89 152 0.9 1.7 0.00 0.00 0.00 12 1100.7
20240417213756 89 167 0.0 0.9 0.00 0.00 0.00 12 1101.0
20240417213256 88 167 0.0 5.2 0.00 0.00 0.00 13 1101.1
20240417212754 88 181 2.6 3.5 0.00 0.00 0.00 13 1101.2
20240417212251 88 122 0.9 3.5 0.00 0.00 0.00 12 1101.0
20240417211751 88 156 1.7 2.6 0.00 0.00 0.00 12 1101.3
20240417211250 87 274 1.7 5.2 0.00 0.00 0.00 13 1101.3
20240417210748 88 110 1.7 2.6 0.00 0.00 0.00 12 1101.3
20240417210247 87 186 0.0 1.7 0.00 0.00 0.00 12 1101.5
20240417205746 87 152 0.0 2.6 0.00 0.00 0.00 13 1101.5
20240417205244 87 186 0.9 3.5 0.00 0.00 0.00 13 1101.6
20240417204741 88 161 0.0 0.9 0.00 0.00 0.00 12 1101.4
20240417204238 88 136 0.0 0.9 0.00 0.00 0.00 12 1101.6
20240417203737 89 171 0.0 2.6 0.00 0.00 0.00 12 1101.6
20240417203236 87 157 0.9 2.6 0.00 0.00 0.00 13 1101.7
20240417202736 86 153 2.6 3.5 0.00 0.00 0.00 13 1102.0
20240417202233 84 144 0.0 1.7 0.00 0.00 0.00 13 1102.1
20240417201732 87 156 0.9 6.1 0.00 0.00 0.00 13 1102.1
20240417201230 86 156 0.0 3.5 0.00 0.00 0.00 13 1102.1
20240417200729 87 169 1.7 3.5 0.00 0.00 0.00 12 1102.2
20240417200228 84 185 0.0 1.7 0.00 0.00 0.00 14 1102.3
20240417195727 86 246 1.7 3.5 0.00 0.00 0.00 14 1102.4
20240417195226 87 159 3.5 5.2 0.00 0.00 0.00 13 1102.4
20240417194725 84 151 2.6 3.5 0.00 0.00 0.00 14 1102.4
20240417194221 86 147 1.7 2.6 0.00 0.00 0.00 13 1102.5
20240417193719 86 182 0.0 3.5 0.00 0.00 0.00 13 1102.6
20240417193217 86 158 3.5 6.1 0.00 0.00 0.00 13 1102.7
20240417192716 87 170 3.5 5.2 0.00 0.00 0.00 13 1102.6
20240417192216 86 176 1.7 3.5 0.00 0.00 0.00 13 1102.8
20240417191714 85 148 2.6 3.5 0.00 0.00 0.00 13 1102.7
20240417191212 86 149 0.9 6.1 0.00 0.00 0.00 14 1102.8
20240417190710 84 156 0.9 2.6 0.00 0.00 0.00 14 1103.0
20240417190207 82 130 0.9 1.7 0.00 0.00 0.00 15 1103.1
20240417185706 85 177 2.6 6.1 0.00 0.00 0.00 14 1103.2
20240417185206 86 163 0.9 2.6 0.00 0.00 0.00 13 1103.0
20240417184706 85 177 2.6 3.5 0.00 0.00 0.00 14 1103.1
20240417184205 84 163 0.0 2.6 0.00 0.00 0.00 15 1103.3
20240417183705 84 152 3.5 3.5 0.00 0.00 0.00 14 1103.5
20240417183205 84 108 0.9 1.7 0.00 0.00 0.00 14 1103.5
20240417182704 84 166 0.9 7.0 0.00 0.00 0.00 14 1103.6
20240417182204 84 151 3.5 5.2 0.00 0.00 0.00 15 1103.7
20240417181702 82 140 2.6 5.2 0.00 0.00 0.00 15 1103.9
20240417181200 83 117 0.0 2.6 0.00 0.00 0.00 15 1103.9
20240417180658 84 158 0.9 5.2 0.00 0.00 0.00 15 1103.9
20240417180156 82 162 0.9 0.9 0.00 0.00 0.00 15 1103.9
20240417175654 82 114 1.7 2.6 0.00 0.00 0.00 15 1104.1
20240417175153 82 140 2.6 5.2 0.00 0.00 0.00 16 1104.2
20240417174652 82 159 0.0 0.0 0.00 0.00 0.00 15 1104.1
20240417174151 81 157 0.9 2.6 0.00 0.00 0.00 16 1104.2
20240417173650 81 146 3.5 3.5 0.00 0.00 0.00 15 1104.1
20240417173149 80 166 0.0 2.6 0.00 0.00 0.00 16 1104.3